Overview Statistics Trail Chart Weather Telemetry Raw packets
 

This is the latest recevied weather packets stored in our database for station/object DG0LHZ-10. If no packets are shown the sender has not sent any weather packets the latest 10 day(s).

<< 25 26 27 28 29 30 31 >>
Time Temp. Humidity Pressure Rain* Wind** Luminosity Snow
1787765264 21.11° C 53% 1020.9 hPa - - - -
1787764364 21.67° C 54% 1020.9 hPa - - - -
1787763464 21.67° C 53% 1021 hPa - - - -
1787762564 22.22° C 53% 1021 hPa - - - -
1787761664 22.22° C 54% 1021 hPa - - - -
1787760764 22.22° C 53% 1021 hPa - - - -
1787759864 22.22° C 53% 1021.1 hPa - - - -
1787758963 22.22° C 53% 1021.2 hPa - - - -
1787758063 22.22° C 52% 1021.2 hPa - - - -
1787757163 22.22° C 54% 1021.3 hPa - - - -
1787756263 21.67° C 54% 1021.3 hPa - - - -
1787755363 21.67° C 54% 1021.4 hPa - - - -
1787754463 21.11° C 54% 1021.3 hPa - - - -
1787753563 21.11° C 54% 1021.4 hPa - - - -
1787752663 21.11° C 53% 1021.5 hPa - - - -
1787751763 20° C 56% 1021.4 hPa - - - -
1787750863 19.44° C 55% 1021.6 hPa - - - -
1787749963 19.44° C 56% 1021.6 hPa - - - -
1787749063 18.89° C 55% 1021.6 hPa - - - -
1787748163 18.89° C 55% 1021.8 hPa - - - -
1787747263 18.33° C 56% 1021.7 hPa - - - -
1787746363 17.78° C 57% 1021.7 hPa - - - -
1787745463 17.78° C 58% 1021.7 hPa - - - -
1787744563 17.78° C 57% 1021.8 hPa - - - -
1787743662 17.78° C 57% 1021.7 hPa - - - -

* Rain since midnight (hover to see other rain measurements)
** Current wind speed in m/s (hover to see current wind gust speed)